Simultaneous Nadir Overpasses (SNOs) Predictions

Prediction of SNOs near US between AQUA and NPP Satellite Orbit:

Table of predicted SNOs near US for the next 10.0 days since TLE Epoch: 8/11/2016
Index Date (AQUA) Time (AQUA) AQUA Lat,Lon Date (NPP) Time (NPP) NPP Lat,Lon Distance(km) Time Diff (sec)
1 08/12/2016 07:18:25 49.91, -76.00 08/12/2016 07:20:48 50.33, -78.14 160.34 143
2 08/12/2016 08:57:18 49.91,-100.72 08/12/2016 09:02:16 50.44,-103.47 204.83 298
3 08/14/2016 18:16:34 49.98, -80.17 08/14/2016 18:11:03 49.68, -81.67 112.92 331
4 08/14/2016 19:55:27 49.97,-104.89 08/14/2016 19:52:31 49.58,-107.00 158.14 176
5 08/14/2016 21:30:38 36.74,-125.00 08/14/2016 21:30:11 36.26,-127.52 231.98 27
6 08/17/2016 09:22:43 25.16,-113.02 08/17/2016 09:15:48 25.22,-113.38 37.03 415
7 08/20/2016 06:29:55
